When you browse on this site, cookies collect data to enhance your experience and personalize the content and advertising you see.
Visit our Privacy Policy to learn more. By continuing to use the site, you agree to this use of cookies and data.
  • In Hungary
  • List of Countries
  • For 7 days
  • Water Temperature
  • Satellite Maps
  • Weather Map
  • News
  • Weather Widgets
  • user-avatar
    Login

    Hourly Weather Coria del Rio

    Today, 19 June, Wednesday

    Time Temperature Precipitation Wind Pressure Humidity
    00:00 +17°C° 0 mm 2 mps 761 mmHg 96%
    01:00 +19°C° 0 mm 1 mps 761 mmHg 95%
    02:00 +19°C° 0 mm 1 mps 761 mmHg 94%
    03:00 +19°C° 0 mm 1 mps 761 mmHg 93%
    04:00 +19°C° 0 mm 1 mps 761 mmHg 92%
    05:00 +18°C° 0 mm 0 mps 761 mmHg 91%
    06:00 +18°C° 0 mm 0 mps 761 mmHg 90%
    07:00 +20°C° 0 mm 0 mps 761 mmHg 78%
    08:00 +24°C° 0 mm 1 mps 761 mmHg 65%
    09:00 +26°C° 0 mm 1 mps 761 mmHg 53%
    10:00 +28°C° 0 mm 2 mps 761 mmHg 46%
    11:00 +29°C° 0 mm 3 mps 761 mmHg 39%
    12:00 +32°C° 0 mm 4 mps 761 mmHg 32%
    13:00 +32°C° 0 mm 5 mps 760 mmHg 32%
    14:00 +32°C° 0 mm 6 mps 760 mmHg 33%
    15:00 +33°C° 0 mm 7 mps 759 mmHg 33%
    16:00 +30°C° 0 mm 7 mps 759 mmHg 38%
    17:00 +29°C° 0 mm 7 mps 759 mmHg 43%
    18:00 +28°C° 0 mm 7 mps 759 mmHg 48%
    19:00 +24°C° 0 mm 6 mps 760 mmHg 58%
    20:00 +22°C° 0 mm 4 mps 760 mmHg 67%
    21:00 +20°C° 0 mm 3 mps 760 mmHg 76%
    22:00 +19°C° 0 mm 3 mps 760 mmHg 78%
    23:00 +18°C° 0 mm 2 mps 761 mmHg 80%

    Tomorrow, 20 June, Thursday

    Time Temperature Precipitation Wind Pressure Humidity
    00:00 +18°C° 0 mm 2 mps 761 mmHg 81%
    01:00 +17°C° 0 mm 2 mps 761 mmHg 82%
    02:00 +18°C° 0 mm 1 mps 760 mmHg 83%
    03:00 +16°C° 0 mm 1 mps 760 mmHg 83%
    04:00 +18°C° 0 mm 1 mps 760 mmHg 82%
    05:00 +18°C° 0 mm 1 mps 760 mmHg 80%
    06:00 +18°C° 0 mm 1 mps 760 mmHg 78%
    07:00 +21°C° 0 mm 1 mps 760 mmHg 68%
    08:00 +23°C° 0 mm 2 mps 760 mmHg 58%
    09:00 +26°C° 0 mm 2 mps 760 mmHg 48%
    10:00 +28°C° 0 mm 3 mps 760 mmHg 42%
    11:00 +29°C° 0 mm 4 mps 760 mmHg 37%
    12:00 +32°C° 0 mm 4 mps 760 mmHg 31%
    13:00 +32°C° 0 mm 5 mps 759 mmHg 32%
    14:00 +32°C° 0 mm 6 mps 759 mmHg 33%
    15:00 +32°C° 0 mm 7 mps 758 mmHg 34%
    16:00 +30°C° 0 mm 7 mps 758 mmHg 39%
    17:00 +28°C° 0 mm 7 mps 758 mmHg 44%
    18:00 +26°C° 0 mm 6 mps 758 mmHg 48%
    19:00 +23°C° 0 mm 5 mps 759 mmHg 58%
    20:00 +21°C° 0 mm 4 mps 759 mmHg 67%
    21:00 +19°C° 0 mm 3 mps 760 mmHg 76%
    22:00 +18°C° 0 mm 3 mps 760 mmHg 76%
    23:00 +18°C° 0 mm 2 mps 760 mmHg 76%

    Day after tomorrow, 21 June, Friday

    Time Temperature Precipitation Wind Pressure Humidity
    00:00 +18°C° 0 mm 2 mps 760 mmHg 76%
    01:00 +18°C° 0 mm 1 mps 760 mmHg 77%
    02:00 +16°C° 0 mm 1 mps 760 mmHg 79%
    03:00 +16°C° 0 mm 1 mps 760 mmHg 80%
    04:00 +16°C° 0 mm 1 mps 760 mmHg 78%
    05:00 +16°C° 0 mm 1 mps 760 mmHg 77%
    06:00 +16°C° 0 mm 1 mps 760 mmHg 75%
    07:00 +20°C° 0 mm 1 mps 760 mmHg 63%
    08:00 +22°C° 0 mm 0 mps 760 mmHg 51%
    09:00 +25°C° 0 mm 0 mps 760 mmHg 38%
    10:00 +29°C° 0 mm 1 mps 760 mmHg 31%
    11:00 +31°C° 0 mm 2 mps 760 mmHg 23%
    12:00 +34°C° 0 mm 2 mps 760 mmHg 15%
    13:00 +35°C° 0 mm 3 mps 759 mmHg 14%
    14:00 +36°C° 0 mm 4 mps 758 mmHg 14%
    15:00 +37°C° 0 mm 4 mps 758 mmHg 13%
    16:00 +35°C° 0 mm 5 mps 758 mmHg 18%
    17:00 +33°C° 0 mm 6 mps 758 mmHg 22%
    18:00 +32°C° 0 mm 7 mps 757 mmHg 27%
    19:00 +28°C° 0 mm 6 mps 758 mmHg 35%
    20:00 +25°C° 0 mm 4 mps 758 mmHg 43%
    21:00 +21°C° 0 mm 3 mps 759 mmHg 50%
    22:00 +20°C° 0 mm 3 mps 759 mmHg 53%
    23:00 +19°C° 0 mm 2 mps 759 mmHg 55%

    22 June, Saturday

    Time Temperature Precipitation Wind Pressure Humidity
    00:00 +18°C° 0 mm 2 mps 759 mmHg 57%
    01:00 +19°C° 0 mm 1 mps 759 mmHg 60%
    02:00 +18°C° 0 mm 1 mps 758 mmHg 62%
    03:00 +16°C° 0 mm 1 mps 758 mmHg 65%
    04:00 +18°C° 0 mm 1 mps 758 mmHg 64%
    05:00 +18°C° 0 mm 1 mps 759 mmHg 62%
    06:00 +18°C° 0 mm 1 mps 759 mmHg 61%
    07:00 +21°C° 0 mm 1 mps 759 mmHg 52%
    08:00 +24°C° 0 mm 1 mps 759 mmHg 44%
    09:00 +27°C° 0 mm 2 mps 759 mmHg 35%
    10:00 +30°C° 0 mm 2 mps 759 mmHg 30%
    11:00 +33°C° 0 mm 3 mps 759 mmHg 24%
    12:00 +36°C° 0 mm 3 mps 758 mmHg 18%
    13:00 +36°C° 0 mm 4 mps 758 mmHg 17%
    14:00 +36°C° 0 mm 5 mps 757 mmHg 16%
    15:00 +38°C° 0 mm 6 mps 757 mmHg 15%
    16:00 +35°C° 0 mm 6 mps 757 mmHg 18%
    17:00 +33°C° 0 mm 6 mps 756 mmHg 20%
    18:00 +30°C° 0 mm 6 mps 756 mmHg 22%
    19:00 +27°C° 0 mm 5 mps 757 mmHg 31%
    20:00 +23°C° 0 mm 4 mps 757 mmHg 40%
    21:00 +20°C° 0 mm 3 mps 758 mmHg 48%
    22:00 +19°C° 0 mm 2 mps 758 mmHg 51%
    23:00 +19°C° 0 mm 2 mps 758 mmHg 54%

    23 June, Sunday

    Time Temperature Precipitation Wind Pressure Humidity
    00:00 +18°C° 0 mm 2 mps 758 mmHg 57%
    01:00 +18°C° 0 mm 1 mps 758 mmHg 61%
    02:00 +18°C° 0 mm 1 mps 758 mmHg 65%
    03:00 +15°C° 0 mm 0 mps 758 mmHg 69%
    04:00 +16°C° 0 mm 1 mps 758 mmHg 68%
    05:00 +18°C° 0 mm 1 mps 758 mmHg 66%
    06:00 +18°C° 0 mm 1 mps 758 mmHg 64%
    07:00 +21°C° 0 mm 1 mps 758 mmHg 59%
    08:00 +23°C° 0 mm 2 mps 758 mmHg 54%
    09:00 +26°C° 0 mm 2 mps 758 mmHg 49%
    10:00 +28°C° 0 mm 2 mps 758 mmHg 42%
    11:00 +31°C° 0 mm 3 mps 758 mmHg 36%
    12:00 +34°C° 0 mm 3 mps 757 mmHg 29%
    13:00 +34°C° 0 mm 4 mps 757 mmHg 30%
    14:00 +35°C° 0 mm 5 mps 756 mmHg 30%
    15:00 +35°C° 0 mm 6 mps 756 mmHg 30%
    16:00 +34°C° 0 mm 6 mps 756 mmHg 32%
    17:00 +33°C° 0 mm 6 mps 755 mmHg 33%
    18:00 +30°C° 0 mm 5 mps 755 mmHg 35%
    19:00 +27°C° 0 mm 5 mps 756 mmHg 42%
    20:00 +23°C° 0 mm 4 mps 757 mmHg 49%
    21:00 +21°C° 0 mm 3 mps 757 mmHg 56%
    22:00 +20°C° 0 mm 3 mps 758 mmHg 62%
    23:00 +19°C° 0 mm 2 mps 758 mmHg 68%

    24 June, Monday

    Time Temperature Precipitation Wind Pressure Humidity
    00:00 +19°C° 0 mm 2 mps 758 mmHg 74%
    01:00 +19°C° 0 mm 1 mps 758 mmHg 77%
    02:00 +19°C° 0 mm 1 mps 758 mmHg 80%
    03:00 +18°C° 0 mm 1 mps 758 mmHg 83%
    04:00 +18°C° 0 mm 1 mps 758 mmHg 82%
    05:00 +19°C° 0 mm 1 mps 758 mmHg 81%
    06:00 +19°C° 0 mm 1 mps 758 mmHg 80%
    07:00 +22°C° 0 mm 1 mps 758 mmHg 71%
    08:00 +24°C° 0 mm 1 mps 758 mmHg 61%
    09:00 +27°C° 0 mm 2 mps 758 mmHg 51%
    10:00 +29°C° 0 mm 2 mps 758 mmHg 44%
    11:00 +31°C° 0 mm 3 mps 758 mmHg 37%
    12:00 +34°C° 0 mm 4 mps 758 mmHg 31%
    13:00 +34°C° 0 mm 4 mps 758 mmHg 32%
    14:00 +34°C° 0 mm 5 mps 758 mmHg 34%
    15:00 +34°C° 0 mm 6 mps 758 mmHg 35%
    16:00 +33°C° 0 mm 6 mps 758 mmHg 41%
    17:00 +30°C° 0 mm 6 mps 758 mmHg 48%
    18:00 +29°C° 0 mm 6 mps 758 mmHg 54%
    19:00 +27°C° 0 mm 5 mps 758 mmHg 63%
    20:00 +25°C° 0 mm 4 mps 759 mmHg 73%
    21:00 +22°C° 0 mm 3 mps 759 mmHg 83%
    22:00 +21°C° 0 mm 3 mps 760 mmHg 86%
    23:00 +21°C° 0 mm 2 mps 760 mmHg 89%
    Show more